Вернуться в каталог

FREGAT DEB

LostHEO
NORAD 46622·DEBRIS·🇷🇺 Russia

Запущен Jul 18, 2011 с Baikonur Cosmodrome

Loading…

Ближайшие Пролёты (ближайшие 24 часа)

TLE

УстаревшееSource: Space-Track

Эпоха: Oct 13, 2020, 01:54 UTC

1 46622U 11037MN  20287.07924209  .00066311  00000-0  83084-1 0  9995
2 46622  51.1944 190.7164 2811755 176.5001 186.0976  9.09476495  1734

Отслеживайте FREGAT DEB в реальном времени с AllMySat

Download on the App Store